sat.trackr.live / text

‹ back to catalog

UFO 4 (USA 108)

NORAD 23467 · 1995-003A

PAYLOAD ACTIVE UNKNOWN

§ Identity

Operator
Country
US
Launch date
1995-01-29
Launch site
AFETR
Launch vehicle
Mass (kg)
RCS (m²)
30.35

Purposes: comms

External: N2YO · Heavens-Above · Gunter

§ Orbital elements

Epoch: 2026-05-24T20:00:28.598112Z

Period
1,436.14 min
Inclination
9.6970°
Eccentricity
0.0003151
Mean motion
1.00268703 rev/d
Perigee alt
35,774.2 km
Apogee alt
35,800.7 km
Semi-major
42,165.6 km
B*
0.0000e+0
RAAN
13.3099°
Arg perigee
41.5091°
Mean anomaly
300.0341°
Rev number
11,471

§ Raw data

UFO 4 (USA 108)1 23467U 95003A   26144.83366433 -.00000030  00000+0  00000+0 0  99942 23467   9.6970  13.3099 0003151  41.5091 300.0341  1.00268703114712

JSON: /api/v1/satellites/23467 · /tle

For live sub-satellite position, see the globe view (requires WebGL).

§ Visibility from observer

Set your observer location to see the next 7 days of passes ≥ 10°. The values pass through the URL so the page stays shareable.

No JS? Fill the form by hand. The geolocation button needs JavaScript.